SCP
0 0 0 0 0 0 0 0 0 0 0 0 0 0 0 0 0 0 0 0 0 0 0 0 0 0 0 0 0 0 0 0 0 0 0 0 0 0 0 0 0 0 0
-0 0 0 0 0 0 0 0 0 0 0 0 0 0 0 0 0 0 0 0 0 0 0 0 0 0 0 0 0 0 0 0 0 0 0 0 0 0 0 0 0 0 0
-0 0 0 0 0 0 0 0 0 0 0 0 0 0 0 0 0 0 0 0 0 0 0 0 0 0 0 0 0 0 0 0 0 0 0 0 0 0 0 0 0 0 0
-0 0 0 0 0 0 0 0 0 0 0 0 0 0 0 0 0 0 0 0 0 0 0 0 0 0 0 0 0 0 0 0 0 0 0 0 0 0 0 0 0 0 0
-0 0 0 0 0 0 0 0 0 0 0 0 0 0 0 0 0 0 0 0 0 0 0 0 0 0 0 0 0 0 0 0 0 0 0 0 0 0 0 0 0 0 0
-0 0 0 0 0 0 0 0 0 0 0 0 0 0 0 0 0 0 0 0 0 0 0 0 0 0 0 0 0 0 0 0 0 0 0 0 0 0 0 0 0 0 0
-0 0 0 0 0 0 0 0 0 0 0 0 0 0 0 0 0 0 0 0 0 0 0 0 0 0 0 0 0 0 0 0 0 0 0 0 0 0 0 0 0 0 0
0 0 0 0 0 0 0 0 0 0 0 0 0 0 0 0 0 0 0 0 0 0 0 0 0 0 0 0 0 0 0 0 0 0 0 0 0 0 0 0 0 0 0
0 0 0 0 0 0 0 0 0 0 0 0 0 0 0 0 0 0 0 0 0 0 0 0 0 0 0 0 0 0 0 0 0 0 0 0 0 0 0 0 0 0 0
0 0 0 0 0 0 0 0 0 0 0 0 0 0 0 0 0 0 0 0 0 0 0 0 0 0 0 0 0 0 0 0 0 0 0 0 0 0 0 0 0 0 0
0 0 0 0 0 0 0 0 0 0 0 0 0 0 0 0 0 0 0 0 0 0 0 0 0 0 0 0 0 0 0 0 0 0 0 0 0 0 0 0 0 0 0
0 0 0 0 0 0 0 0 0 0 0 0 0 0 0 0 0 0 0 0 0 0 0 0 0 0 0 0 0 0 0 0 0 0 0 0 0 0 0 0 0 0 0
0 0 0 0 0 0 0 0 0 0 0 0 0 0 0 0 0 0 0 0 0 0 0 0 0 0 0 0 0 0 0 0 0 0 0 0 0 0 0 0 0 0 0
0 0 0 0 0 0 0 0 0 0 0 0 0 0 0 0 0 0 0 0 0 0 0 0 0 0 0 0 0 0 0 0 0 0 0 0 0 0 0 0 0 0 0
0 0 0 0 0 0 0 0 0 0 0 0 0 0 0 0 0 0 0 0 0 0 0 0 0 0 0 0 0 0 0 0 0 0 0 0 0 0 0 0 0 0 0
0 0 0 0 0 0 0 0 0 0 0 0 0 0 0 0 0 0 0 0 0 0 0 0 0 0 0 0 0 0 0 0 0 0 0 0 0 0 0 0 0 0 0
0 0 0 0 0 0 0 0 0 0 0 0 0 0 0 0 0 0 0 0 0 0 0 0 0 0 0 0 0 0 0 0 0 0 0 0 0 0 0 0 0 0 0
0 0 0 0 0 0 0 0 0 0 0 0 0 0 0 0 0 0 0 0 0 0 0 0 0 0 0 0 0 0 0 0 0 0 0 0 0 0 0 0 0 0 0
0 0 0 0 0 0 0 0 0 0 0 0 0 0 0 0 0 0 0 0 0 0 0 0 0 0 0 0 0 0 0 0 0 0 0 0 0 0 0 0 0 0 0
0 0 0 0 0 0 0 0 0 0 0 0 0 0 0 0 0 0 0 0 0 0 0 0 0 0 0 0 0 0 0 0 0 0 0 0 0 0 0 0 0 0 0
0 0 0 0 0 0 0 0 0 0 0 0 0 0 0 0 0 0 0 0 0 0 0 0 0 0 0 0 0 0 0 0 0 0 0 0 0 0 0 0 0 0 0
0 0 0 0 0 0 0 0 0 0 0 0 0 0 0 0 0 0 0 0 0 0 0 0 0 0 0 0 0 0 0 0 0 0 0 0 0 0 0 0 0 0 0
0 0 0 0 0 0 0 0 0 0 0 0 0 0 0 0 0 0 0 0 0 0 0 0 0 0 0 0 0 0 0 0 0 0 0 0 0 0 0 0 0 0 0
0 0 0 0 0 0 0 0 0 0 0 0 0 0 0 0 0 0 0 0 0 0 0 0 0 0 0 0 0 0 0 0 0 0 0 0 0 0 0 0 0 0 0
0 0 0 0 0 0 0 0 0 0 0 0 0 0 0 0 0 0 0 0 0 0 0 0 0 0 0 0 0 0 0 0 0 0 0 0 0 0 0 0 0 0 0
0 0 0 0 0 0 0 0 0 0 0 0 0 0 0 0 0 0 0 0 0 0 0 0 0 0 0 0 0 0 0 0 0 0 0 0 0 0 0 0 0 0 0
Wind_Speed
6 7 15 16 14 13 12 12 11 11 11 11 11 11 11 10 10 10 11 11 11 12 12 13 14 14 14 14 14 15 15 16 17 18 18 17 16 16 16 16 14 10 17
8 9 17 17 16 14 13 12 11 11 11 10 10 10 10 10 10 10 10 11 11 11 12 12 13 13 13 13 14 14 14 15 16 17 17 15 15 15 16 16 15 10 16
9 11 13 18 16 15 13 12 12 12 11 10 10 10 10 10 10 10 10 10 11 11 11 12 12 12 12 13 13 13 14 14 15 16 15 9 9 14 15 15 15 15 15
11 10 8 18 17 15 14 13 13 12 11 10 10 10 9 9 9 9 10 10 10 11 11 11 11 11 12 12 12 13 13 13 14 14 8 8 8 12 14 14 14 14 14
10 8 10 19 17 16 15 14 13 12 11 10 9 9 9 9 9 9 9 9 10 10 10 10 11 11 11 11 12 12 12 12 13 11 7 7 7 11 13 12 12 12 12
9 7 10 19 17 16 15 14 13 12 11 10 9 9 8 8 8 8 8 8 9 9 9 9 10 10 10 10 10 11 11 11 10 6 6 7 6 9 11 11 11 11 11
9 7 8 18 17 16 16 15 14 12 11 10 9 9 8 8 8 7 7 7 7 8 8 8 9 9 9 9 9 9 9 9 6 5 5 6 7 10 10 10 10 10 9
10 8 7 17 17 16 16 15 14 13 12 10 9 9 8 8 7 6 6 6 6 6 6 7 7 7 7 8 8 8 8 8 5 4 4 5 8 9 8 8 8 8 8
8 7 6 8 11 15 15 14 14 13 12 11 10 8 7 7 6 6 5 4 4 4 4 5 5 6 6 6 7 7 7 7 4 2 3 3 8 9 8 8 7 7 7
6 7 6 5 6 7 9 13 13 13 12 11 9 8 7 6 5 4 4 3 2 2 2 2 3 4 4 5 6 6 6 5 2 2 2 4 9 9 9 8 8 8 8
7 6 6 6 6 6 6 9 11 11 11 10 8 8 7 3 3 2 4 3 2 2 1 1 2 3 4 4 5 6 5 1 2 2 2 7 10 11 11 11 10 10 10
11 9 6 7 6 6 6 5 5 5 5 5 4 5 4 3 2 3 4 4 3 3 3 3 3 3 3 2 3 4 1 2 2 3 4 10 12 12 13 12 12 12 12
10 10 9 8 7 7 5 4 3 3 3 4 5 5 4 3 2 2 1 2 2 2 1 1 2 1 0 1 2 2 2 2 2 3 5 11 12 13 14 14 14 14 14
8 11 10 9 7 7 6 4 4 3 3 3 4 5 4 3 3 2 2 2 2 1 2 1 1 2 2 2 3 3 4 3 3 3 5 12 13 14 15 15 16 16 15
9 11 11 11 10 7 6 4 4 4 4 4 4 5 5 4 4 3 3 2 3 2 3 3 2 3 3 3 3 4 5 5 5 4 4 11 13 14 15 16 17 17 17
9 10 11 12 11 9 7 5 5 4 4 4 4 5 6 4 4 4 4 3 3 3 3 3 3 3 3 3 4 4 5 5 5 5 4 6 12 14 15 16 17 17 17
7 8 11 12 11 10 9 7 5 5 4 4 4 5 5 5 5 4 3 3 3 3 3 2 2 2 2 2 4 4 4 5 5 5 5 4 5 10 13 15 15 15 16
6 8 10 10 11 10 8 7 5 4 4 4 3 3 4 4 4 4 3 3 2 2 2 2 1 1 2 2 3 3 3 4 5 5 4 4 3 3 7 12 12 13 13
6 7 9 9 11 10 8 6 5 4 4 3 3 2 3 3 3 3 3 2 2 2 1 1 1 1 2 2 3 3 4 4 5 4 4 4 3 3 3 6 9 11 12
4 6 8 8 9 8 6 5 4 4 3 2 2 2 3 2 3 3 2 2 2 2 1 1 1 1 1 2 3 4 4 4 3 3 4 3 3 3 2 3 3 5 11
4 6 7 9 9 8 6 5 5 4 3 2 2 3 3 3 3 3 2 2 2 1 1 1 1 0 1 1 2 4 4 3 3 3 2 2 3 3 3 3 3 3 5
5 6 7 9 9 8 6 4 4 4 3 2 2 3 3 3 3 2 3 2 2 1 1 1 1 1 1 1 1 2 4 6 4 3 3 3 3 3 3 4 4 5 4
5 7 7 8 9 8 7 6 5 4 3 2 2 2 2 3 3 3 3 3 2 2 1 1 1 1 0 1 0 1 0 3 4 4 4 3 3 3 4 5 6 6 6
5 5 6 7 8 8 8 8 7 5 4 3 2 2 2 3 3 3 3 3 3 2 2 1 1 1 2 1 1 1 3 3 3 5 4 3 4 4 5 6 6 7 7
5 6 6 7 7 7 7 8 8 5 4 3 3 4 3 3 3 3 3 3 3 2 1 1 1 1 1 2 2 1 2 2 4 5 7 5 4 4 5 6 6 6 7
5 6 6 8 6 6 7 7 8 8 7 6 4 3 2 2 2 3 3 3 2 1 1 0 1 1 1 2 2 2 3 3 3 4 6 6 6 4 5 6 6 6 6
Wind_Direction
205 199 183 165 161 156 150 145 137 127 118 111 107 102 96 90 85 79 74 70 65 60 58 57 56 57 57 57 56 54 53 51 49 47 43 44 53 55 54 54 49 39 47
164 179 181 167 164 159 154 148 140 131 122 118 113 107 99 94 89 83 77 72 68 64 62 60 58 57 57 57 56 55 55 54 51 47 42 33 41 54 53 51 50 48 48
151 170 179 168 167 165 160 152 142 134 128 125 119 112 105 98 91 85 79 74 71 67 64 62 60 59 58 57 56 55 55 55 53 48 39 21 21 49 50 49 48 47 47
155 166 174 168 168 167 161 152 145 139 136 131 124 117 111 104 96 89 83 77 72 69 66 63 61 60 59 56 55 55 55 55 52 45 31 17 11 43 46 45 45 45 45
155 165 174 169 169 168 163 157 152 147 144 141 133 125 118 110 101 92 85 80 74 71 68 65 62 60 59 56 55 55 56 53 48 39 23 14 5 37 45 43 41 41 41
155 162 175 170 171 169 166 163 159 155 153 149 142 135 126 116 105 95 89 83 78 73 69 66 63 60 57 54 52 54 56 54 45 31 22 10 354 26 39 37 34 35 36
154 161 176 173 174 172 169 168 165 162 159 156 152 145 135 123 112 103 95 88 80 74 69 65 62 59 55 51 49 49 51 51 50 33 18 4 349 15 27 29 24 23 24
153 158 174 178 178 176 174 172 170 168 166 163 160 155 145 134 126 118 106 95 84 75 68 62 58 54 52 48 45 45 47 53 42 24 5 354 348 358 8 14 10 9 9
150 157 177 182 179 180 178 177 174 174 173 170 169 164 155 146 143 137 123 113 100 83 70 58 50 44 39 37 36 37 39 49 51 9 350 337 333 341 346 349 348 347 348
155 166 177 180 173 174 177 179 178 179 178 176 175 167 160 158 156 150 139 139 128 108 81 54 40 31 26 21 20 20 27 45 25 345 328 313 325 329 332 332 329 327 327
176 182 181 180 173 168 170 180 178 182 182 179 176 170 157 136 128 136 156 185 199 203 215 330 350 0 15 10 1 3 26 23 330 309 300 306 319 324 325 324 322 318 314
189 190 186 182 175 169 173 173 169 172 174 167 156 156 141 139 146 146 182 211 239 256 261 279 310 3 34 12 342 353 356 318 305 290 289 305 314 318 319 320 317 314 311
189 190 189 185 176 173 171 164 161 157 157 156 157 156 150 146 149 148 172 237 258 259 264 304 345 18 345 281 295 299 288 289 277 277 285 299 307 311 314 315 313 311 308
182 193 190 185 180 178 170 167 163 160 160 161 168 164 156 158 174 184 197 213 221 216 217 223 234 254 263 262 263 273 275 268 264 265 277 293 301 306 310 310 309 307 305
191 194 191 187 185 178 170 169 166 169 172 173 173 176 170 173 188 194 206 211 216 209 209 215 228 242 255 262 259 259 267 269 268 264 272 288 296 301 305 307 307 307 305
198 194 190 191 188 178 177 174 172 173 174 174 179 184 182 182 188 196 207 210 218 214 212 214 225 239 252 258 268 265 266 270 266 265 260 278 290 298 304 307 309 308 306
199 190 189 190 185 181 180 177 172 174 171 178 186 188 189 188 193 194 198 210 219 209 206 213 227 229 248 256 268 271 267 263 263 264 265 262 278 294 303 310 314 314 312
191 183 187 185 182 181 178 173 168 167 169 178 179 180 187 190 188 184 192 212 212 189 191 204 213 235 256 266 274 277 273 271 270 268 269 271 274 281 299 311 320 326 328
188 176 175 176 176 174 166 158 150 149 157 161 155 159 171 176 175 170 183 195 177 168 182 200 199 213 262 278 277 276 275 271 274 285 286 286 284 284 284 310 327 336 338
166 162 161 159 161 154 145 134 126 121 127 127 139 149 150 150 150 151 155 160 146 144 162 168 213 221 248 280 293 292 282 284 293 287 287 295 297 299 303 304 319 327 335
142 148 155 154 155 152 151 149 144 144 136 121 112 113 121 121 125 128 128 122 123 142 159 158 172 270 302 340 340 320 310 312 312 290 289 303 314 324 325 318 314 309 314
152 150 150 154 156 159 154 146 136 132 125 116 106 90 90 107 114 121 125 120 118 120 96 94 105 78 350 32 46 346 336 336 335 324 325 310 310 323 321 317 311 302 296
159 159 154 153 151 148 138 123 107 95 89 96 94 85 64 88 97 103 109 111 106 112 110 101 123 137 244 329 162 166 296 292 304 305 304 301 301 305 305 303 295 290 288
167 152 143 143 142 144 145 146 145 144 146 153 137 118 83 76 87 96 102 105 104 104 105 112 125 153 161 243 287 234 220 218 269 302 301 290 289 286 285 289 289 287 283
153 147 141 135 134 140 144 145 138 128 127 121 112 108 90 70 76 89 99 101 102 103 107 102 104 154 178 199 214 232 255 249 231 255 285 294 295 264 263 269 275 277 279
144 142 140 135 133 137 137 139 140 138 137 133 131 125 111 89 74 77 94 96 101 103 105 127 162 193 207 218 220 211 211 227 231 234 265 284 289 274 265 261 265 270 275